Regional Weather Roundup
Issued by NWS

Home | Current Version | Previous Version | Text Only | Print | Product List | Glossary Off
Versions: 1 2 3 4 5 6 7 8 9 10 11 12 13 14 15 16 17 18 19 20 21 22 23 24 25 26 27

000
ASUS45 KBOU 201410
RWRCO

WEATHER ROUNDUP FOR COLORADO
NATIONAL WEATHER SERVICE DENVER/BOULDER CO
800 AM MDT SUN MAY 20 2018

NOTE: "FAIR" INDICATES FEW OR NO CLOUDS BELOW 12000 FEET WITH NO
SIGNIFICANT WEATHER AND/OR OBSTRUCTIONS TO VISIBILITY.

COZ001>005-013-030-031-201500-
...NORTHWEST COLORADO...

CITY           SKY/WX    TMP DP  RH WIND       PRES   REMARKS
CRAIG          FAIR      44  40  85 CALM      30.15R
HAYDEN         FAIR      45  39  79 E8        30.16R
MEEKER         FAIR      44  37  76 S3        30.14R
RANGELY        FAIR      51  39  64 E13       30.11R
RABBIT EARS PA FAIR      37  32  81 N5        30.29R
STEAMBOAT SPGS CLOUDY    37  37 100 CALM      30.16S VSB 1/2
WALDEN         CLOUDY    34  32  93 CALM      30.25R VSB<1/4
$$

COZ006>008-011-201500-
...WEST CENTRAL VALLEYS...

CITY           SKY/WX    TMP DP  RH WIND       PRES   REMARKS
GRAND JUNCTION FAIR      62  37  39 SE15      30.05R
MONTROSE       FAIR      51  32  48 S7        30.12R
EAGLE          FAIR      43  36  76 CALM      30.24R
RIFLE          FAIR      49  39  68 W3        30.12R
DELTA          FAIR      57  36  44 CALM      30.10S
NUCLA          FAIR      55  28  35 SE5       30.12R
$$

COZ017>023-064>068-201500-
...SOUTHWEST COLORADO...

CITY           SKY/WX    TMP DP  RH WIND       PRES   REMARKS
DURANGO        FAIR      51  29  42 CALM      30.16R
CORTEZ         FAIR      64  31  28 E8        30.08R
PAGOSA SPRINGS FAIR      51  26  38 CALM      30.24R
TELLURIDE      FAIR      53  25  33 SE8G17    30.26R
WOLF CREEK PAS FAIR      36  27  69 SW10      30.46R
$$

COZ009-010-012-014-032>034-037-058>063-201500-
...CENTRAL COLORADO...

CITY           SKY/WX    TMP DP  RH WIND       PRES   REMARKS
ASPEN          FAIR      45  32  60 N5        30.19R
BUENA VISTA    CLOUDY    42  37  83 SE5       30.28S
COPPER MTN     FAIR      37  27  65 SE6       30.38R
BERTHOUD PASS  FAIR      32  19  59 NW15      30.39R WCI  22
COTTONWOOD PAS FAIR      43  39  87 E7        30.33R FOG
GUNNISON       FAIR      38  34  85 CALM      30.26S
GRANBY         FOG       34  34  99 CALM      30.27S VSB 3/4
KREMMLING      FAIR      41  34  75 CALM      30.25R
LEADVILLE      CLOUDY    35  32  88 CALM      30.32R
MONARCH PASS   FAIR      34  28  80 MISG      30.50R
SALIDA         CLOUDY    45  39  78 SE7       30.35S
SUNLIGHT       FAIR      39  27  60 S5        30.35R
WILKERSON PASS FAIR      32  32 100 SW5       30.40R WCI  27
$$

COZ069>075-201500-
...SAN LUIS VALLEY/SANGRE DE CRISTO MOUNTAINS...

CITY           SKY/WX    TMP DP  RH WIND       PRES   REMARKS
ALAMOSA        FAIR      44  35  70 CALM      30.26R
DEL NORTE      FAIR      47  29  49 W9        30.28R
LA VETA PASS   FAIR      41  36  81 SW9       30.45R
SAGUACHE       NOT AVBL
$$

COZ035-036-038>040-201500-
...NORTHERN COLORADO FRONT RANGE...

CITY           SKY/WX    TMP DP  RH WIND       PRES   REMARKS
DENVER INTL AP CLOUDY    41  40  96 E8        30.28R FOG
AURORA         CLOUDY    41  41 100 E6        30.28R
FRONT RANGE AP FOG       43  41  93 E7        30.29R VSB 1
ERIE MUNI ARPT CLOUDY    43  42  95 E5        30.33S
BOULDER MUN AP DRIZZLE   43  43 100 E5        30.27S
CENTENNIAL     CLOUDY    43  40  89 NE6       30.27R
BROOMFIELD     DRIZZLE   41  41 100 E6        30.28S
FORT COLLINS   LGT RAIN  42  41  96 SE9       30.29S
LONGMONT       CLOUDY    45  44  93 E5        30.30S
$$

COZ041-046-047-076>085-087-088-201500-
...PIKES PEAK/PALMER DIVIDE AND SOUTHERN FOOTHILLS...

CITY           SKY/WX    TMP DP  RH WIND       PRES   REMARKS
COLO. SPRINGS  LGT RAIN  42  41  96 SE8       30.28S FOG
A. F. ACADEMY  CLOUDY    43  43 100 S10       30.27S
SCHRIEVER AFB  NOT AVBL
CHEYENNE MTN   LGT RAIN  39  39 100 SE9       30.23R VSB 1/8
ELLICOTT         N/A    N/A N/A N/A CALM      30.27R
FALCON         CLOUDY    41  40  98 SE3       30.29S FOG
FORT CARSON    DRIZZLE   42  42  99 S8        30.26S
LIMON          CLOUDY    42  37  82 CALM      30.28R
MONUMENT HILL  CLOUDY    37  36  93 E3        30.29S FOG
CANON CITY     CLOUDY    46  43  87 E10G20    30.27R
WALSENBURG     CLOUDY    45  45 100 E10       30.27S
TRINIDAD       CLOUDY    43  42  97 E8        30.27S FOG
$$

COZ042>045-048>051-090-091-201500-
...NORTHEAST COLORADO...

CITY           SKY/WX    TMP DP  RH WIND       PRES   REMARKS
GREELEY ARPT   CLOUDY    44  40  85 SE6       30.30R
AKRON          PTSUNNY   43  39  86 NW5       30.26F
BURLINGTON     FAIR      48  41  76 N17       30.22F
WRAY           CLOUDY    50  43  76 NW8       30.25R
YUMA           CLOUDY    45  41  87 NW10      30.25F
STERLING       FAIR      46  37  71 N3        30.26F
HOLYOKE        PTSUNNY   52  45  76 NW9       30.25S
FORT MORGAN    CLOUDY    44  37  76 CALM      30.29F
$$

COZ086-089-092>099-201500-
...SOUTHEAST COLORADO...

CITY           SKY/WX    TMP DP  RH WIND       PRES   REMARKS
PUEBLO         CLOUDY    46  41  82 SE12      30.28R
LA JUNTA       CLOUDY    48  41  76 NE5       30.27S
LAMAR          CLOUDY    50  40  68 N13       30.23F
SPRINGFIELD      N/A     44  42  93 N17       30.23R
$$




USA.gov is the U.S. government's official web portal to all federal, state and local government web resources and services.